Temperature
18 18 19 19 18 18 18 18 18 18 18 18 18 18 18 18 18 18 18 18 18 18 18 18 18 18 18 18 17 17 17 17 17 17 17 17 17 17 16 16 16 16 16
19 18 18 18 18 18 18 18 18 18 18 18 18 18 18 18 18 18 18 18 18 18 18 18 18 18 17 17 17 17 17 17 17 17 17 17 17 16 16 16 16 16 16
19 18 18 18 18 18 18 18 18 18 18 18 18 18 18 18 18 18 18 18 18 18 18 18 18 18 17 17 17 17 17 17 17 17 17 17 16 16 16 16 16 16 16
18 18 18 18 18 18 18 18 18 18 18 18 18 18 18 18 18 18 18 18 18 18 18 18 18 17 17 17 17 17 17 17 17 17 17 16 16 16 16 16 16 16 16
18 18 18 18 18 18 18 18 18 18 18 18 18 18 18 18 18 18 18 18 18 18 18 18 18 17 17 17 17 17 17 17 17 17 17 17 16 16 16 16 16 16 16
18 18 18 18 18 18 18 18 18 18 18 18 18 18 18 18 18 18 18 18 18 18 18 18 18 17 17 17 17 17 17 17 17 17 17 17 16 16 16 16 16 16 16
18 18 18 18 18 18 18 18 18 18 18 18 18 18 18 18 18 18 18 18 18 18 18 18 18 18 17 17 17 17 17 17 17 17 17 17 17 16 16 16 16 16 16
18 18 18 18 18 18 18 18 18 18 18 18 18 18 18 18 18 18 18 18 18 18 18 18 18 18 18 17 17 17 17 17 17 17 17 17 17 16 16 16 16 16 16
18 18 18 18 18 18 18 18 18 18 18 18 18 18 17 18 18 18 18 18 18 18 18 17 18 18 18 17 17 17 17 17 17 17 17 17 17 16 16 16 16 16 16
18 18 18 18 18 18 18 18 18 18 18 18 18 18 18 18 17 17 18 18 17 18 18 18 17 17 17 17 17 17 17 17 17 17 17 17 16 16 16 16 16 16 16
18 18 18 18 18 18 18 18 18 18 18 18 18 18 18 17 17 17 17 17 17 17 17 17 17 17 17 17 17 17 17 17 17 17 16 16 16 16 16 16 16 16 15
18 18 18 18 18 18 18 18 18 18 18 18 18 18 18 17 17 17 17 17 17 17 17 17 17 17 17 17 17 17 17 17 17 16 16 16 16 16 16 16 16 16 15
19 19 18 18 18 18 18 18 18 18 18 18 18 18 18 17 17 17 17 17 17 17 17 17 17 17 17 17 17 17 17 17 16 16 16 16 16 16 16 16 16 15 15
19 19 18 18 18 18 18 18 18 18 18 18 18 18 18 18 17 17 17 17 16 16 17 17 17 17 17 17 17 17 17 17 16 16 16 16 16 16 15 15 15 15 15
19 18 18 18 18 18 18 18 18 18 18 18 18 18 17 17 17 17 17 17 17 16 16 17 17 17 17 16 16 16 16 16 16 16 16 16 15 15 15 15 15 15 15
18 18 18 18 18 18 18 18 18 18 18 18 18 17 17 17 17 17 17 17 17 17 16 17 17 16 16 16 16 16 16 16 16 16 16 15 15 15 15 15 15 15 15
18 18 18 18 18 18 18 18 18 18 18 18 17 17 17 17 17 17 17 17 17 16 16 16 16 16 16 16 16 16 16 16 16 15 15 15 15 15 15 15 15 14 14
18 18 18 18 18 18 18 18 18 18 18 17 17 17 17 17 17 17 17 17 17 16 16 16 16 16 16 16 16 15 15 15 15 15 15 15 15 15 15 14 14 14 14
18 18 18 17 17 17 17 17 17 17 17 17 17 17 17 17 17 17 17 17 17 16 16 16 16 16 16 15 15 15 15 15 15 15 15 14 14 14 14 14 14 14 14
17 17 17 17 17 17 17 17 17 17 17 17 17 17 17 17 17 17 17 17 16 16 16 16 16 15 15 15 15 15 15 15 15 14 14 14 14 14 14 14 14 14 14
17 17 17 17 17 17 17 17 17 17 17 17 17 17 17 17 16 16 16 16 16 16 16 15 15 15 15 15 15 15 14 14 14 14 14 14 14 14 14 14 14 13 13
17 17 17 17 17 17 17 17 17 17 17 17 17 16 16 16 16 16 16 16 16 16 15 15 15 15 15 15 14 14 14 14 14 14 14 14 13 13 13 13 13 13 13
17 17 17 16 16 16 16 16 16 16 16 16 16 16 16 16 16 16 16 16 15 15 15 15 15 15 15 14 14 14 14 14 14 14 13 13 13 13 13 13 13 13 13
16 16 16 16 16 16 16 16 16 16 16 16 16 16 15 15 15 15 15 15 15 15 15 14 14 14 14 14 14 14 14 13 13 13 13 13 13 13 13 13 13 13 12
16 16 16 16 16 16 16 15 15 15 15 15 15 15 15 15 15 15 15 15 15 14 14 14 14 14 14 14 14 13 13 13 13 13 13 12 13 12 12 12 12 12 12
16 16 16 16 16 15 15 15 15 15 15 15 15 15 15 15 14 14 14 14 14 14 14 14 14 14 13 13 13 13 13 13 13 12 12 12 12 12 12 12 12 12 12
Wind_Speed
3 3 3 4 4 4 4 3 4 3 3 3 4 4 4 6 8 9 9 13 14 14 13 12 11 11 10 10 10 10 9 9 9 9 9 10 9 9 9 9 9 9 9
4 3 2 2 3 4 4 4 3 3 2 2 2 3 3 5 7 8 9 11 13 14 13 13 12 11 11 11 11 11 10 10 10 10 10 10 10 10 10 10 10 10 10
5 4 2 2 2 2 2 2 2 2 1 1 0 1 2 3 5 7 8 9 10 12 13 13 13 12 12 11 11 11 11 11 10 11 11 11 11 11 10 10 10 10 10
6 4 2 2 2 1 1 1 1 1 0 0 0 1 1 2 3 5 7 8 8 9 11 13 13 13 12 11 12 11 11 11 11 11 11 12 12 11 11 11 11 11 11
5 4 2 2 1 1 0 1 1 1 1 0 1 1 1 1 2 3 4 6 8 9 9 11 12 12 12 12 12 12 12 11 11 11 11 12 12 12 12 11 11 11 11
5 4 2 2 1 1 0 0 1 1 1 1 0 1 1 1 2 2 3 4 6 8 9 8 9 10 11 12 13 13 13 13 12 12 12 12 13 13 12 11 11 12 12
5 4 2 2 1 2 2 2 1 1 1 1 2 2 3 1 1 2 2 2 3 6 7 7 7 8 8 12 14 14 14 14 13 13 13 13 13 14 13 12 12 12 12
6 5 3 2 2 2 1 1 1 1 1 1 2 1 2 3 2 1 1 2 2 3 4 7 8 9 8 8 10 13 14 14 14 13 13 14 14 14 14 13 13 12 12
6 5 4 3 2 2 2 2 2 2 2 1 2 3 2 2 2 2 1 1 1 1 2 3 5 7 8 8 9 11 13 14 13 13 12 12 12 12 11 12 13 13 13
5 6 5 4 4 3 3 3 2 2 3 2 1 2 3 3 2 1 3 2 1 1 2 2 3 4 6 6 8 9 11 12 12 12 12 12 11 11 11 10 10 11 12
4 5 5 4 4 3 4 3 3 2 3 3 2 2 1 1 2 2 2 2 2 2 2 2 2 3 5 6 6 7 9 10 10 11 11 11 11 10 10 10 10 10 10
3 4 5 5 4 4 4 4 4 4 3 3 3 2 2 2 3 3 3 3 2 2 2 1 2 2 4 5 6 7 8 9 9 10 10 10 11 11 11 10 10 10 9
4 5 5 5 5 5 5 5 4 4 4 4 4 3 3 3 3 3 3 2 2 2 2 1 2 3 4 5 6 8 8 9 9 10 10 10 11 11 11 10 10 9 9
5 4 5 5 6 6 6 5 4 4 4 4 4 3 3 3 3 4 4 3 1 2 2 3 2 3 4 5 6 7 7 9 10 10 9 8 9 10 10 9 9 9 9
4 4 5 5 5 5 5 4 4 4 4 4 4 4 3 3 3 4 4 4 4 3 4 3 2 3 4 5 6 6 6 8 8 9 9 9 9 9 9 9 9 9 9
4 4 4 5 5 5 4 4 4 4 4 4 4 3 4 3 3 3 3 3 4 4 4 3 3 3 3 4 5 6 6 7 7 8 9 10 10 9 9 9 9 9 9
5 5 5 5 4 4 4 4 5 4 5 5 4 4 5 4 3 3 3 3 3 3 4 4 2 2 2 2 2 3 5 5 5 7 9 10 10 9 9 9 9 8 8
5 6 5 5 5 5 5 5 6 5 5 5 5 4 5 4 4 3 3 4 4 4 4 4 3 1 2 2 2 2 3 4 4 7 9 9 9 8 9 9 9 9 8
6 5 5 5 5 5 5 5 6 5 5 6 5 5 5 4 4 4 4 4 4 3 3 4 3 2 1 1 1 1 1 1 3 4 6 7 8 8 8 8 8 8 8
5 5 5 5 5 5 5 5 5 4 4 5 4 5 5 5 6 5 5 5 4 3 3 3 2 2 1 1 1 1 1 1 1 2 2 3 4 6 7 7 8 8 8
5 4 4 4 4 4 4 4 5 5 4 3 4 4 4 5 6 5 4 4 4 3 3 3 2 1 1 1 2 2 1 1 2 1 1 1 2 2 3 6 8 8 8
4 3 3 4 4 4 4 4 4 4 4 4 4 4 4 4 5 6 6 6 6 5 5 4 3 3 3 3 2 2 2 1 2 2 1 2 2 2 3 4 6 7 8
3 3 3 3 4 4 4 4 4 3 3 4 4 4 3 3 4 4 4 4 5 5 6 6 5 5 4 5 4 3 3 3 4 3 2 2 2 3 4 5 7 7 7
3 3 3 3 3 4 4 4 3 2 2 3 3 4 4 3 2 2 2 2 3 4 6 5 6 6 5 5 5 5 5 3 2 2 3 2 2 3 3 4 5 7 7
2 3 3 3 3 4 3 3 2 2 2 3 3 3 3 3 3 2 3 2 2 3 4 5 5 5 5 5 4 3 2 2 1 2 1 2 2 2 2 3 4 6 6
3 2 2 3 3 3 3 3 3 2 2 3 3 2 3 3 3 3 3 3 3 3 2 1 1 2 2 3 5 5 6 4 2 2 2 2 1 1 1 2 2 3 3
Wind_Direction
162 171 186 191 203 215 219 226 231 235 241 237 223 204 187 187 186 187 191 197 197 196 196 197 197 199 201 202 202 202 201 202 203 204 205 199 196 197 198 201 203 205 206
161 159 166 181 202 212 217 211 217 228 229 218 219 197 184 177 183 188 192 199 201 199 200 203 203 205 208 208 208 208 209 210 211 210 209 206 202 202 204 205 207 210 210
163 161 162 178 209 217 206 204 223 224 214 203 228 214 187 181 184 187 190 195 200 204 208 210 210 212 213 212 213 214 215 216 217 216 213 209 205 206 206 207 212 213 212
168 160 158 190 217 213 178 167 161 136 194 176 282 294 238 206 190 193 193 193 195 203 211 214 215 216 217 217 217 219 221 222 221 217 212 209 209 209 209 210 213 214 214
168 164 167 190 200 152 180 204 153 154 171 223 244 263 256 219 224 207 193 193 201 204 208 215 216 218 220 220 219 219 221 223 218 214 212 209 211 213 212 212 215 216 217
174 166 166 178 158 137 162 151 169 154 176 199 241 326 282 242 230 220 207 198 204 208 210 212 215 221 223 224 221 219 219 219 216 216 216 215 215 217 216 217 218 219 220
183 172 173 171 159 164 189 180 163 165 226 125 60 355 340 321 274 236 197 185 206 213 212 210 210 212 221 226 227 227 224 221 221 219 219 220 221 221 220 222 223 222 221
192 188 176 185 183 172 189 188 152 168 245 151 135 92 344 342 341 293 205 186 206 209 213 215 213 214 221 222 225 228 227 225 223 221 222 223 225 225 222 223 225 223 225
201 196 184 188 194 183 198 211 195 190 224 251 178 159 169 235 303 322 303 260 192 205 221 209 210 215 219 220 221 223 223 225 222 222 222 222 222 220 221 223 226 227 228
208 204 193 193 196 194 203 223 214 200 186 220 257 213 191 175 176 294 320 315 273 229 221 219 208 208 215 212 216 215 217 220 221 223 224 222 222 222 220 224 228 229 230
219 212 207 205 203 202 208 214 206 207 196 195 206 210 205 180 164 173 260 298 316 285 241 216 199 202 209 207 210 211 210 213 217 224 228 226 224 220 221 225 231 234 235
230 226 218 213 213 211 212 212 210 211 215 208 206 198 187 183 193 179 211 245 269 283 275 239 217 203 203 209 215 214 215 217 219 223 225 224 221 222 225 228 231 235 238
228 231 228 216 215 219 217 212 213 222 218 215 214 216 210 209 189 175 183 226 260 280 289 275 236 206 208 208 212 212 216 218 218 220 219 219 221 225 227 228 230 234 238
227 226 227 222 220 220 224 215 215 218 218 221 226 217 215 224 193 181 181 183 240 291 284 262 268 228 217 215 223 215 212 217 219 220 220 222 223 224 226 227 231 235 238
229 227 228 226 228 223 220 210 218 223 217 220 224 220 222 230 211 202 188 178 181 232 264 254 246 249 224 217 224 215 212 219 220 219 218 222 224 223 222 224 228 232 236
229 226 229 229 229 227 226 216 224 223 216 227 222 218 229 232 225 212 198 198 189 195 233 249 240 243 232 226 226 213 217 221 223 222 218 218 221 224 224 224 227 230 233
228 229 227 228 228 226 229 226 229 224 224 236 233 221 232 233 231 225 209 203 203 190 220 265 258 245 221 224 222 213 219 213 225 227 222 221 222 224 227 227 226 227 228
234 232 228 225 227 230 226 225 232 230 228 236 237 230 236 235 232 228 215 215 219 207 200 238 265 249 230 214 210 223 224 223 220 229 228 223 221 224 228 227 225 227 227
240 236 225 227 233 235 230 228 228 228 230 236 232 227 234 223 230 227 215 217 223 223 204 210 244 244 251 219 168 246 235 245 224 225 227 227 225 225 229 227 224 223 225
239 239 233 230 225 230 233 230 225 222 228 239 234 229 229 220 227 226 224 218 217 220 218 212 226 240 256 253 151 227 304 306 263 238 227 229 226 225 229 230 227 225 221
241 237 233 238 232 230 235 226 222 222 220 234 242 239 232 218 221 222 223 214 208 211 210 213 223 231 250 236 229 221 231 277 285 247 237 256 226 222 233 236 228 223 217
246 239 238 240 242 248 248 229 218 221 220 220 231 243 244 242 233 229 223 209 195 197 202 206 222 221 236 233 222 212 197 209 270 249 187 259 213 242 239 228 225 218 214
238 243 247 239 242 244 240 231 220 212 220 222 223 228 246 256 238 236 226 210 212 213 204 204 210 223 222 222 205 210 199 203 228 226 177 250 253 250 245 242 229 214 213
233 235 245 242 243 256 245 228 218 210 228 233 222 214 215 236 239 207 199 203 229 232 220 210 209 220 223 216 203 200 201 204 257 247 171 212 246 247 249 237 227 215 218
235 236 241 239 239 258 252 221 202 203 234 252 246 228 213 215 224 183 170 194 255 276 258 233 222 229 225 212 192 159 159 163 243 260 213 187 231 249 258 257 243 230 225
228 232 250 250 239 245 251 221 182 181 223 252 260 250 222 205 202 175 175 189 232 262 278 313 297 288 247 220 195 182 184 185 198 238 232 179 205 164 284 279 249 231 224
Height
1546 1546 1547 1548 1549 1550 1550 1551 1552 1552 1553 1553 1553 1553 1553 1553 1553 1553 1554 1554 1555 1555 1555 1555 1555 1555 1555 1555 1555 1556 1556 1557 1557 1558 1558 1558 1559 1559 1560 1560 1561 1562 1563
1546 1547 1547 1548 1549 1549 1550 1551 1551 1552 1552 1553 1552 1552 1552 1552 1552 1552 1553 1553 1553 1554 1554 1554 1554 1554 1554 1553 1554 1554 1555 1555 1556 1556 1557 1557 1558 1558 1559 1559 1560 1560 1561
1547 1547 1547 1548 1548 1549 1550 1550 1551 1551 1551 1552 1552 1552 1552 1551 1551 1552 1552 1552 1552 1552 1553 1553 1552 1552 1552 1552 1552 1553 1553 1553 1554 1554 1555 1555 1556 1556 1557 1558 1558 1559 1560
1547 1547 1547 1547 1548 1549 1549 1549 1550 1550 1551 1551 1551 1551 1551 1550 1551 1551 1551 1551 1551 1551 1551 1551 1551 1551 1551 1551 1551 1551 1551 1552 1552 1552 1553 1553 1554 1555 1555 1556 1556 1557 1558
1546 1547 1547 1547 1548 1548 1549 1549 1549 1550 1550 1550 1550 1550 1550 1550 1550 1550 1549 1550 1550 1550 1549 1550 1549 1549 1549 1549 1549 1550 1550 1550 1550 1550 1551 1551 1552 1553 1553 1554 1555 1555 1556
1546 1546 1547 1547 1548 1548 1548 1548 1549 1549 1549 1549 1549 1549 1549 1549 1549 1548 1548 1548 1548 1548 1548 1548 1548 1548 1548 1548 1548 1548 1548 1548 1548 1549 1549 1549 1550 1550 1551 1552 1553 1553 1554
1545 1545 1546 1546 1547 1547 1547 1548 1548 1547 1547 1548 1548 1547 1547 1547 1547 1547 1547 1546 1546 1546 1546 1547 1546 1546 1546 1545 1546 1545 1545 1546 1546 1546 1546 1547 1548 1548 1549 1549 1550 1551 1551
1544 1544 1545 1545 1546 1546 1546 1546 1546 1546 1546 1546 1546 1546 1546 1546 1545 1545 1545 1545 1545 1545 1545 1545 1544 1544 1544 1543 1543 1543 1543 1543 1544 1544 1544 1545 1545 1545 1546 1546 1547 1548 1548
1542 1543 1543 1543 1544 1544 1544 1545 1545 1545 1545 1545 1545 1545 1545 1543 1544 1544 1543 1543 1543 1543 1543 1543 1543 1542 1542 1541 1540 1540 1540 1541 1541 1541 1542 1542 1542 1542 1543 1544 1545 1545 1546
1541 1542 1542 1542 1542 1542 1542 1543 1543 1543 1543 1543 1543 1543 1543 1543 1543 1542 1542 1542 1542 1542 1541 1541 1541 1540 1540 1539 1538 1538 1538 1538 1539 1539 1539 1539 1539 1540 1540 1541 1542 1542 1543
1540 1540 1540 1540 1540 1540 1540 1541 1541 1541 1541 1541 1541 1541 1541 1541 1541 1541 1540 1540 1540 1540 1539 1539 1539 1538 1538 1537 1537 1536 1536 1536 1537 1537 1537 1537 1537 1537 1537 1538 1539 1539 1540
1538 1538 1538 1538 1538 1538 1538 1539 1538 1538 1539 1539 1539 1539 1539 1539 1538 1539 1538 1538 1538 1537 1537 1537 1537 1536 1536 1536 1535 1535 1534 1534 1534 1534 1534 1534 1534 1535 1535 1535 1536 1536 1536
1535 1536 1536 1536 1536 1536 1536 1536 1536 1536 1536 1536 1536 1536 1536 1536 1537 1537 1536 1536 1535 1535 1535 1535 1535 1534 1534 1533 1533 1533 1532 1532 1532 1532 1532 1532 1532 1532 1532 1533 1533 1533 1533
1533 1533 1533 1533 1533 1534 1534 1534 1533 1533 1534 1534 1534 1533 1534 1534 1534 1534 1534 1534 1533 1532 1532 1532 1532 1532 1532 1531 1531 1530 1530 1530 1530 1530 1530 1530 1530 1530 1530 1530 1530 1530 1530
1530 1531 1531 1531 1531 1531 1531 1531 1531 1531 1531 1531 1531 1531 1531 1531 1532 1531 1531 1531 1531 1529 1528 1529 1529 1529 1529 1529 1529 1528 1528 1527 1527 1527 1527 1527 1527 1527 1526 1526 1526 1526 1526
1527 1528 1528 1528 1528 1528 1528 1528 1528 1528 1528 1528 1528 1528 1528 1528 1528 1528 1528 1528 1528 1527 1526 1525 1526 1526 1526 1526 1526 1525 1524 1525 1525 1524 1524 1524 1524 1524 1523 1523 1523 1523 1523
1524 1524 1524 1525 1525 1525 1525 1525 1525 1525 1525 1524 1524 1525 1524 1525 1525 1525 1525 1524 1524 1524 1523 1522 1523 1523 1523 1522 1522 1522 1522 1522 1521 1521 1521 1521 1521 1521 1521 1520 1520 1520 1520
1520 1520 1521 1521 1521 1521 1522 1522 1522 1522 1521 1521 1521 1521 1521 1521 1521 1521 1521 1521 1521 1520 1520 1519 1519 1520 1520 1519 1519 1519 1518 1518 1518 1518 1518 1518 1518 1518 1518 1517 1517 1517 1517
1515 1516 1516 1517 1517 1517 1518 1518 1518 1518 1518 1517 1517 1517 1517 1517 1516 1517 1517 1517 1517 1517 1517 1516 1516 1516 1516 1516 1516 1515 1515 1515 1515 1515 1515 1515 1514 1514 1514 1514 1514 1514 1513
1511 1511 1512 1512 1512 1513 1513 1514 1514 1514 1514 1514 1513 1513 1513 1513 1513 1513 1513 1513 1513 1513 1513 1513 1512 1512 1512 1512 1512 1512 1511 1511 1511 1512 1511 1511 1511 1511 1511 1511 1510 1510 1510
1507 1507 1508 1508 1508 1508 1509 1509 1509 1509 1509 1509 1509 1509 1509 1509 1509 1509 1509 1509 1509 1509 1509 1509 1509 1508 1508 1508 1508 1508 1508 1508 1508 1508 1508 1508 1507 1507 1507 1507 1507 1507 1507
1503 1503 1503 1504 1504 1505 1505 1505 1505 1505 1505 1505 1505 1505 1505 1505 1506 1506 1505 1505 1506 1506 1505 1505 1505 1504 1504 1505 1504 1504 1504 1504 1503 1505 1504 1504 1504 1503 1504 1503 1503 1504 1504
1499 1499 1500 1500 1500 1501 1501 1501 1501 1501 1501 1501 1501 1501 1501 1502 1502 1502 1502 1502 1502 1502 1502 1502 1501 1501 1501 1501 1500 1500 1500 1500 1500 1501 1501 1500 1501 1500 1501 1501 1501 1501 1501
1496 1496 1496 1497 1497 1497 1497 1498 1498 1498 1498 1497 1497 1497 1498 1498 1498 1498 1498 1497 1498 1498 1498 1498 1498 1498 1498 1498 1497 1497 1497 1497 1497 1498 1498 1497 1497 1498 1498 1498 1498 1498 1498
1493 1493 1493 1494 1494 1493 1494 1494 1494 1494 1494 1494 1494 1494 1494 1495 1495 1495 1495 1494 1494 1494 1495 1495 1494 1494 1494 1494 1494 1494 1493 1493 1493 1494 1495 1494 1494 1495 1495 1495 1495 1495 1495
1490 1490 1490 1491 1490 1490 1490 1490 1490 1490 1490 1490 1490 1490 1491 1491 1492 1492 1492 1491 1491 1491 1491 1491 1491 1491 1490 1490 1490 1490 1490 1490 1489 1490 1490 1491 1491 1492 1492 1492 1492 1492 1492